SIA953 WIII-WSSS

Flight info

Callsign SIA953
Flight time 1h 16m
Altitude 34000
Route DOLTA2D DOLTA G579 REPOV REPOV2B
Aircraft B77W/H-SDE1E2E3FGHIJ2J3J4J5M1RWXYZ/LB1D1

Departure

Time 2026-05-07 03:08
Airport Soekarno-Hatta International Airport (WIII)

Arrival

Time 2026-05-07 04:25
Airport Singapore Changi Airport (WSSS)
Time Latitude Longitude Altitude Speed Heading
2026-05-07 02:17 -6.11844 106.66229 53 ft 0 kts 158°
2026-05-07 03:00 -6.11841 106.66228 53 ft 2 kts 158°
2026-05-07 03:00 -6.11827 106.66222 53 ft 2 kts 158°
2026-05-07 03:00 -6.11813 106.66216 53 ft 2 kts 158°
2026-05-07 03:00 -6.11799 106.66211 53 ft 2 kts 158°
2026-05-07 03:01 -6.11790 106.66207 53 ft 2 kts 156°
2026-05-07 03:01 -6.11777 106.66200 53 ft 2 kts 133°
2026-05-07 03:01 -6.11769 106.66187 53 ft 2 kts 113°
2026-05-07 03:01 -6.11765 106.66173 53 ft 2 kts 94°
2026-05-07 03:02 -6.11766 106.66158 53 ft 2 kts 75°
2026-05-07 03:02 -6.11768 106.66151 53 ft 1 kts 67°
2026-05-07 03:02 -6.11769 106.66150 53 ft 0 kts 68°
2026-05-07 03:02 -6.11768 106.66150 53 ft 0 kts 68°
2026-05-07 03:04 -6.11767 106.66154 53 ft 2 kts 68°
2026-05-07 03:04 -6.11754 106.66186 53 ft 7 kts 69°
2026-05-07 03:04 -6.11728 106.66252 53 ft 12 kts 69°
2026-05-07 03:04 -6.11691 106.66347 53 ft 15 kts 68°
2026-05-07 03:05 -6.11614 106.66389 53 ft 13 kts 352°
2026-05-07 03:05 -6.11524 106.66360 53 ft 14 kts 338°
2026-05-07 03:05 -6.11428 106.66321 53 ft 15 kts 338°
2026-05-07 03:05 -6.11329 106.66328 53 ft 15 kts 54°
2026-05-07 03:06 -6.11281 106.66430 53 ft 16 kts 68°
2026-05-07 03:06 -6.11237 106.66541 53 ft 17 kts 68°
2026-05-07 03:06 -6.11192 106.66656 53 ft 17 kts 68°
2026-05-07 03:06 -6.11144 106.66774 53 ft 18 kts 68°
2026-05-07 03:07 -6.11096 106.66894 53 ft 18 kts 68°
2026-05-07 03:07 -6.11012 106.66970 53 ft 16 kts 353°
2026-05-07 03:07 -6.10945 106.66893 53 ft 14 kts 287°
2026-05-07 03:07 -6.10943 106.66795 53 ft 13 kts 256°
2026-05-07 03:08 -6.10980 106.66696 53 ft 23 kts 248°
2026-05-07 03:08 -6.11141 106.66293 53 ft 106 kts 249°
2026-05-07 03:08 -6.11518 106.65337 68 ft 183 kts 251°
2026-05-07 03:08 -6.11959 106.64082 789 ft 196 kts 250°
2026-05-07 03:09 -6.12430 106.62771 1633 ft 205 kts 261°
2026-05-07 03:09 -6.12400 106.61295 2108 ft 220 kts 289°
2026-05-07 03:09 -6.11886 106.59792 2583 ft 240 kts 292°
2026-05-07 03:09 -6.11306 106.58157 3131 ft 258 kts 292°
2026-05-07 03:10 -6.10690 106.56407 3742 ft 276 kts 292°
2026-05-07 03:10 -6.10048 106.54559 4601 ft 283 kts 291°
2026-05-07 03:10 -6.09409 106.52707 5545 ft 287 kts 291°
2026-05-07 03:10 -6.08751 106.50784 6441 ft 292 kts 291°
2026-05-07 03:11 -6.07916 106.48973 7340 ft 291 kts 310°
2026-05-07 03:11 -6.06459 106.47589 8202 ft 290 kts 327°
2026-05-07 03:11 -6.04792 106.46462 9089 ft 291 kts 331°
2026-05-07 03:11 -6.03063 106.45376 9758 ft 297 kts 331°
2026-05-07 03:12 -6.01275 106.44260 9954 ft 299 kts 331°
2026-05-07 03:12 -5.99503 106.43153 9976 ft 306 kts 331°
2026-05-07 03:12 -5.97582 106.41956 9985 ft 342 kts 331°
2026-05-07 03:12 -5.95474 106.40642 9982 ft 373 kts 330°
2026-05-07 03:13 -5.93223 106.39237 9975 ft 382 kts 330°
2026-05-07 03:13 -5.90940 106.37809 9971 ft 384 kts 330°
2026-05-07 03:13 -5.88690 106.36401 9974 ft 384 kts 330°
2026-05-07 03:13 -5.86402 106.34969 9973 ft 384 kts 330°
2026-05-07 03:14 -5.84115 106.33538 9970 ft 385 kts 330°
2026-05-07 03:14 -5.81849 106.32120 9969 ft 385 kts 330°
2026-05-07 03:14 -5.77305 106.29275 9969 ft 384 kts 330°
2026-05-07 03:15 -5.75019 106.27846 9970 ft 384 kts 330°
2026-05-07 03:15 -5.72750 106.26444 9993 ft 391 kts 333°
2026-05-07 03:15 -5.70338 106.25085 10792 ft 396 kts 333°
2026-05-07 03:15 -5.67946 106.23748 11894 ft 392 kts 333°
2026-05-07 03:16 -5.65555 106.22408 12715 ft 396 kts 333°
2026-05-07 03:16 -5.63135 106.21049 13354 ft 404 kts 333°
2026-05-07 03:16 -5.60651 106.19652 14078 ft 410 kts 333°
2026-05-07 03:16 -5.58163 106.18250 14805 ft 414 kts 333°
2026-05-07 03:17 -5.55628 106.16822 15516 ft 419 kts 333°
2026-05-07 03:17 -5.53089 106.15391 16191 ft 424 kts 333°
2026-05-07 03:17 -5.50493 106.13927 16730 ft 430 kts 333°
2026-05-07 03:17 -5.47853 106.12439 16856 ft 431 kts 333°
2026-05-07 03:18 -5.45255 106.10973 16868 ft 429 kts 333°
2026-05-07 03:18 -5.42663 106.09509 16872 ft 428 kts 333°
2026-05-07 03:18 -5.40047 106.08032 16875 ft 428 kts 333°
2026-05-07 03:18 -5.37408 106.06544 16922 ft 437 kts 333°
2026-05-07 03:19 -5.34772 106.05054 17613 ft 439 kts 333°
2026-05-07 03:19 -5.32118 106.03555 18524 ft 436 kts 333°
2026-05-07 03:19 -5.29458 106.02053 19220 ft 438 kts 333°
2026-05-07 03:19 -5.26793 106.00549 19703 ft 445 kts 333°
2026-05-07 03:20 -5.24084 105.99021 19859 ft 449 kts 333°
2026-05-07 03:20 -5.21360 105.97483 19871 ft 449 kts 333°
2026-05-07 03:20 -5.18609 105.95930 19874 ft 449 kts 333°
2026-05-07 03:20 -5.15905 105.94402 19879 ft 449 kts 333°
2026-05-07 03:21 -5.13163 105.92854 19883 ft 448 kts 333°
2026-05-07 03:21 -5.10409 105.91294 19983 ft 458 kts 333°
2026-05-07 03:21 -5.07656 105.89724 20665 ft 458 kts 333°
2026-05-07 03:21 -5.04892 105.88148 21480 ft 455 kts 333°
2026-05-07 03:22 -5.02153 105.86587 22082 ft 457 kts 333°
2026-05-07 03:22 -4.99344 105.84986 22502 ft 464 kts 333°
2026-05-07 03:22 -4.96537 105.83387 22955 ft 470 kts 333°
2026-05-07 03:22 -4.93655 105.81746 23458 ft 474 kts 332°
2026-05-07 03:23 -4.90800 105.80119 23985 ft 477 kts 332°
2026-05-07 03:23 -4.87861 105.78447 24486 ft 482 kts 332°
2026-05-07 03:23 -4.84943 105.76785 24970 ft 486 kts 332°
2026-05-07 03:23 -4.82011 105.75117 25458 ft 489 kts 332°
2026-05-07 03:24 -4.79019 105.73413 25939 ft 493 kts 332°
2026-05-07 03:24 -4.76041 105.71719 26420 ft 497 kts 332°
2026-05-07 03:24 -4.73001 105.69989 26899 ft 500 kts 332°
2026-05-07 03:24 -4.69949 105.68253 27382 ft 503 kts 332°
2026-05-07 03:25 -4.66925 105.66532 27830 ft 507 kts 332°
2026-05-07 03:25 -4.63828 105.64770 28289 ft 511 kts 332°
2026-05-07 03:25 -4.60734 105.63010 28736 ft 514 kts 332°
2026-05-07 03:25 -4.57620 105.61239 29268 ft 516 kts 332°
2026-05-07 03:26 -4.54515 105.59472 29999 ft 512 kts 332°
2026-05-07 03:26 -4.51438 105.57721 30876 ft 506 kts 332°
2026-05-07 03:26 -4.48389 105.55985 31730 ft 499 kts 332°
2026-05-07 03:26 -4.45377 105.54271 32468 ft 495 kts 332°
2026-05-07 03:27 -4.42391 105.52571 33149 ft 492 kts 332°
2026-05-07 03:27 -4.39426 105.50884 33744 ft 491 kts 332°
2026-05-07 03:27 -4.36445 105.49189 33866 ft 494 kts 332°
2026-05-07 03:28 -4.30500 105.45808 33873 ft 489 kts 332°
2026-05-07 03:28 -4.24511 105.42402 33872 ft 490 kts 332°
2026-05-07 03:29 -4.18561 105.39020 33873 ft 490 kts 332°
2026-05-07 03:29 -4.12606 105.35637 33871 ft 490 kts 332°
2026-05-07 03:30 -4.06654 105.32256 33870 ft 490 kts 332°
2026-05-07 03:30 -4.00730 105.28891 33869 ft 490 kts 332°
2026-05-07 03:31 -3.94772 105.25508 33869 ft 490 kts 332°
2026-05-07 03:31 -3.88858 105.22159 33870 ft 488 kts 332°
2026-05-07 03:32 -3.82892 105.18801 33870 ft 489 kts 332°
2026-05-07 03:32 -3.76942 105.15452 33870 ft 490 kts 332°
2026-05-07 03:33 -3.71013 105.12116 33869 ft 491 kts 332°
2026-05-07 03:33 -3.65055 105.08762 33870 ft 491 kts 332°
2026-05-07 03:34 -3.59083 105.05401 33872 ft 490 kts 332°
2026-05-07 03:34 -3.53140 105.02058 33870 ft 490 kts 332°
2026-05-07 03:35 -3.47177 104.98702 33869 ft 491 kts 332°
2026-05-07 03:35 -3.41185 104.95332 33871 ft 491 kts 332°
2026-05-07 03:36 -3.35252 104.91994 33861 ft 491 kts 332°
2026-05-07 03:36 -3.29276 104.88634 33850 ft 492 kts 332°
2026-05-07 03:37 -3.23284 104.85265 33852 ft 493 kts 332°
2026-05-07 03:37 -3.17298 104.81899 33855 ft 494 kts 332°
2026-05-07 03:38 -3.11311 104.78534 33860 ft 492 kts 332°
2026-05-07 03:38 -3.05331 104.75173 33864 ft 491 kts 332°
2026-05-07 03:39 -2.99343 104.71807 33867 ft 492 kts 332°
2026-05-07 03:39 -2.93361 104.68446 33870 ft 492 kts 332°
2026-05-07 03:40 -2.87233 104.65494 33897 ft 491 kts 344°
2026-05-07 03:40 -2.80511 104.63992 33880 ft 491 kts 351°
2026-05-07 03:41 -2.73827 104.62713 33876 ft 490 kts 351°
2026-05-07 03:41 -2.67085 104.61431 33873 ft 490 kts 351°
2026-05-07 03:42 -2.60354 104.60155 33866 ft 490 kts 351°
2026-05-07 03:42 -2.53650 104.58886 33865 ft 490 kts 351°
2026-05-07 03:43 -2.46924 104.57613 33862 ft 490 kts 351°
2026-05-07 03:43 -2.40208 104.56344 33862 ft 490 kts 351°
2026-05-07 03:44 -2.33498 104.55076 33861 ft 491 kts 351°
2026-05-07 03:44 -2.26777 104.53806 33860 ft 491 kts 351°
2026-05-07 03:45 -2.20012 104.52528 33860 ft 490 kts 351°
2026-05-07 03:45 -2.13337 104.51267 33860 ft 490 kts 351°
2026-05-07 03:46 -2.06587 104.49992 33859 ft 491 kts 351°
2026-05-07 03:46 -1.99851 104.48721 33859 ft 491 kts 351°
2026-05-07 03:47 -1.93157 104.47456 33863 ft 491 kts 351°
2026-05-07 03:47 -1.86431 104.46186 33868 ft 490 kts 351°
2026-05-07 03:48 -1.79690 104.44913 33864 ft 490 kts 351°
2026-05-07 03:48 -1.72951 104.43642 33862 ft 490 kts 351°
2026-05-07 03:49 -1.66234 104.42374 33856 ft 491 kts 351°
2026-05-07 03:49 -1.59504 104.41103 33849 ft 492 kts 351°
2026-05-07 03:50 -1.52781 104.39834 33849 ft 492 kts 351°
2026-05-07 03:50 -1.45999 104.38554 33849 ft 492 kts 351°
2026-05-07 03:51 -1.39291 104.37289 33849 ft 492 kts 351°
2026-05-07 03:51 -1.32544 104.36015 33849 ft 492 kts 351°
2026-05-07 03:52 -1.25780 104.34739 33847 ft 492 kts 351°
2026-05-07 03:52 -1.19038 104.33467 33846 ft 492 kts 351°
2026-05-07 03:53 -1.12287 104.32193 33846 ft 493 kts 351°
2026-05-07 03:53 -1.05489 104.30911 33846 ft 494 kts 351°
2026-05-07 03:54 -0.98712 104.29632 33846 ft 494 kts 351°
2026-05-07 03:54 -0.91973 104.28361 33848 ft 494 kts 351°
2026-05-07 03:55 -0.85179 104.27079 33847 ft 493 kts 351°
2026-05-07 03:55 -0.78441 104.25808 33846 ft 492 kts 351°
2026-05-07 03:56 -0.71681 104.24533 33846 ft 493 kts 351°
2026-05-07 03:56 -0.64929 104.23259 33847 ft 493 kts 351°
2026-05-07 03:57 -0.58153 104.21981 33849 ft 492 kts 351°
2026-05-07 03:57 -0.51412 104.20670 33845 ft 491 kts 351°
2026-05-07 03:58 -0.44679 104.19327 33844 ft 491 kts 351°
2026-05-07 03:58 -0.37883 104.17976 33843 ft 501 kts 351°
2026-05-07 03:59 -0.30906 104.16592 33848 ft 516 kts 351°
2026-05-07 03:59 -0.23809 104.15184 33846 ft 522 kts 350°
2026-05-07 04:00 -0.16653 104.13763 33841 ft 521 kts 350°
2026-05-07 04:00 -0.09541 104.12351 33839 ft 520 kts 351°
2026-05-07 04:01 -0.02422 104.10938 33832 ft 520 kts 351°
2026-05-07 04:01 0.04750 104.09515 33822 ft 521 kts 351°
2026-05-07 04:02 0.11884 104.08099 33819 ft 512 kts 351°
2026-05-07 04:02 0.15306 104.07417 33819 ft 493 kts 351°
2026-05-07 04:02 0.18621 104.06757 33819 ft 475 kts 351°
2026-05-07 04:02 0.21791 104.06125 33816 ft 457 kts 351°
2026-05-07 04:03 0.24852 104.05514 33815 ft 440 kts 351°
2026-05-07 04:03 0.27806 104.04926 33815 ft 427 kts 351°
2026-05-07 04:03 0.30734 104.04345 33825 ft 428 kts 351°
2026-05-07 04:04 0.36518 104.03198 33136 ft 418 kts 351°
2026-05-07 04:04 0.39384 104.02631 32285 ft 421 kts 351°
2026-05-07 04:04 0.42262 104.02059 31588 ft 420 kts 351°
2026-05-07 04:04 0.45138 104.01488 31092 ft 415 kts 351°
2026-05-07 04:05 0.47938 104.00932 30629 ft 409 kts 351°
2026-05-07 04:05 0.50738 104.00376 30091 ft 405 kts 351°
2026-05-07 04:05 0.53505 103.99828 29535 ft 403 kts 351°
2026-05-07 04:05 0.56218 103.99290 28991 ft 400 kts 351°
2026-05-07 04:06 0.58952 103.98749 28255 ft 395 kts 353°
2026-05-07 04:06 0.61658 103.98482 27263 ft 398 kts
2026-05-07 04:06 0.64454 103.98743 26147 ft 399 kts 15°
2026-05-07 04:06 0.67065 103.99448 25677 ft 386 kts 19°
2026-05-07 04:07 0.69617 104.00207 25267 ft 373 kts 19°
2026-05-07 04:07 0.72093 104.00945 24662 ft 367 kts 19°
2026-05-07 04:07 0.74533 104.01674 23936 ft 365 kts 19°
2026-05-07 04:07 0.76946 104.02394 23138 ft 365 kts 19°
2026-05-07 04:08 0.79373 104.03118 22341 ft 365 kts 19°
2026-05-07 04:08 0.81798 104.03841 21688 ft 361 kts 19°
2026-05-07 04:08 0.84191 104.04552 21117 ft 355 kts 19°
2026-05-07 04:08 0.86542 104.05252 20482 ft 351 kts 20°
2026-05-07 04:09 0.88878 104.05947 19825 ft 348 kts 19°
2026-05-07 04:09 0.91191 104.06635 19185 ft 344 kts 19°
2026-05-07 04:09 0.93444 104.07304 18585 ft 339 kts 19°
2026-05-07 04:09 0.95697 104.07973 17975 ft 335 kts 19°
2026-05-07 04:10 0.97926 104.08633 17372 ft 330 kts 19°
2026-05-07 04:10 1.00117 104.09282 16755 ft 326 kts 19°
2026-05-07 04:10 1.02273 104.09920 16132 ft 323 kts 19°
2026-05-07 04:10 1.04440 104.10559 15474 ft 321 kts 19°
2026-05-07 04:11 1.06564 104.11184 14843 ft 319 kts 19°
2026-05-07 04:11 1.08688 104.11807 14217 ft 316 kts 18°
2026-05-07 04:11 1.10808 104.12425 13599 ft 313 kts 18°
2026-05-07 04:11 1.12882 104.13025 12996 ft 310 kts 19°
2026-05-07 04:12 1.14898 104.13763 12441 ft 305 kts 25°
2026-05-07 04:12 1.16833 104.14586 11865 ft 302 kts 25°
2026-05-07 04:12 1.18761 104.15416 11266 ft 300 kts 25°
2026-05-07 04:12 1.20664 104.16231 10693 ft 297 kts 25°
2026-05-07 04:13 1.22571 104.17045 10113 ft 295 kts 25°
2026-05-07 04:13 1.24433 104.17839 9548 ft 292 kts 25°
2026-05-07 04:13 1.26314 104.18640 9008 ft 288 kts 25°
2026-05-07 04:13 1.28153 104.19424 8444 ft 286 kts 25°
2026-05-07 04:14 1.29974 104.20201 7899 ft 284 kts 25°
2026-05-07 04:14 1.31785 104.20936 7385 ft 282 kts 17°
2026-05-07 04:14 1.33727 104.21067 6953 ft 277 kts 355°
2026-05-07 04:14 1.35611 104.20750 6814 ft 266 kts 350°
2026-05-07 04:15 1.37379 104.20377 6637 ft 255 kts 350°
2026-05-07 04:15 1.39098 104.20007 6457 ft 246 kts 350°
2026-05-07 04:15 1.40764 104.19649 6207 ft 241 kts 350°
2026-05-07 04:15 1.42395 104.19300 5842 ft 243 kts 350°
2026-05-07 04:16 1.44069 104.18941 5481 ft 242 kts 350°
2026-05-07 04:16 1.45675 104.18595 5408 ft 228 kts 350°
2026-05-07 04:16 1.47200 104.18268 5199 ft 223 kts 351°
2026-05-07 04:16 1.48724 104.17942 4876 ft 222 kts 351°
2026-05-07 04:17 1.50221 104.17621 4524 ft 222 kts 351°
2026-05-07 04:17 1.51737 104.17279 4178 ft 222 kts 344°
2026-05-07 04:17 1.53097 104.16512 3842 ft 221 kts 324°
2026-05-07 04:17 1.54272 104.15560 3615 ft 216 kts 323°
2026-05-07 04:18 1.55445 104.14590 3498 ft 219 kts 323°
2026-05-07 04:18 1.56612 104.13630 3485 ft 217 kts 323°
2026-05-07 04:18 1.57767 104.12682 3473 ft 211 kts 323°
2026-05-07 04:18 1.58900 104.11749 3468 ft 209 kts 321°
2026-05-07 04:19 1.59712 104.10577 3420 ft 209 kts 287°
2026-05-07 04:19 1.59733 104.09148 3419 ft 203 kts 256°
2026-05-07 04:19 1.59088 104.07925 3415 ft 199 kts 223°
2026-05-07 04:19 1.57903 104.07263 3451 ft 197 kts 200°
2026-05-07 04:20 1.56586 104.06797 3482 ft 196 kts 201°
2026-05-07 04:20 1.55311 104.06296 3489 ft 197 kts 202°
2026-05-07 04:20 1.54022 104.05760 3309 ft 199 kts 203°
2026-05-07 04:21 1.51545 104.04723 2830 ft 187 kts 203°
2026-05-07 04:21 1.50351 104.04224 2602 ft 184 kts 203°
2026-05-07 04:21 1.49181 104.03733 2380 ft 181 kts 203°
2026-05-07 04:21 1.48033 104.03252 2146 ft 174 kts 202°
2026-05-07 04:22 1.46931 104.02792 1933 ft 169 kts 203°
2026-05-07 04:22 1.45867 104.02345 1720 ft 161 kts 202°
2026-05-07 04:22 1.44844 104.01916 1522 ft 156 kts 202°
2026-05-07 04:22 1.43851 104.01500 1324 ft 153 kts 202°
2026-05-07 04:23 1.42867 104.01086 1127 ft 153 kts 202°
2026-05-07 04:23 1.41881 104.00674 927 ft 152 kts 202°
2026-05-07 04:23 1.40910 104.00266 726 ft 151 kts 203°
2026-05-07 04:23 1.39945 103.99858 544 ft 150 kts 202°
2026-05-07 04:24 1.38978 103.99460 321 ft 146 kts 202°
2026-05-07 04:24 1.38023 103.99062 157 ft 149 kts 202°
2026-05-07 04:24 1.37078 103.98665 39 ft 141 kts 202°
2026-05-07 04:24 1.36278 103.98328 43 ft 105 kts 203°
2026-05-07 04:25 1.35822 103.98140 38 ft 34 kts 199°
2026-05-07 04:25 1.35617 103.98114 37 ft 22 kts 174°
2026-05-07 04:25 1.35530 103.98164 35 ft 12 kts 95°
2026-05-07 04:25 1.35576 103.98225 36 ft 10 kts 32°
2026-05-07 04:26 1.35638 103.98255 36 ft 10 kts 24°
2026-05-07 04:26 1.35705 103.98296 35 ft 11 kts 56°
2026-05-07 04:26 1.35685 103.98358 35 ft 10 kts 163°
2026-05-07 04:26 1.35612 103.98341 35 ft 10 kts 200°
2026-05-07 04:27 1.35545 103.98315 37 ft 9 kts 194°
2026-05-07 04:27 1.35498 103.98340 37 ft 8 kts 113°
2026-05-07 04:27 1.35490 103.98371 38 ft 2 kts 102°
2026-05-07 04:27 1.35489 103.98378 38 ft 0 kts 101°
2026-05-07 04:28 1.35488 103.98386 38 ft 2 kts 96°
2026-05-07 04:28 1.35487 103.98392 38 ft 0 kts 95°